Location: Cella
(44.7333°N, 10.5667°E)
Time: 09:47:03
(UTC+00:00)

Cosmos 1777 Rocket - Pass Details

Date: 25 June 2021
Orbit: 757 x 776 km, 74.0° (Epoch: 28 July)

Event Time Altitude Azimuth Distance (km) Brightness Sun altitude
Rises 20:07:44 0° 350° (N) 3,263 8.3 -8.9°
Reaches altitude 10° 20:10:55 10° 9° (N) 2,333 7.1 -9.3°
Maximum altitude 20:14:28 18° 52° (NE) 1,846 6.0 -9.8°
Drops below altitude 10° 20:18:00 10° 94° (E) 2,327 6.1 -10.2°
Enters shadow 20:19:00 - 102° (ESE) 2,589 6.3 -10.3°
